TimeEST,TemperatureF,Dew PointF,Humidity,Sea Level PressureIn,VisibilityMPH,Wind Direction,Wind SpeedMPH,Gust SpeedMPH,PrecipitationIn,Events,Conditions,WindDirDegrees,DateUTC
12:54 AM,23.0,9.0,55,30.02,-9999.0,NNW,10.4,20.7,N/A,,Unknown,330,2013-02-21 05:54:00
1:54 AM,23.0,9.0,55,30.01,-9999.0,Variable,5.8,-,N/A,,Unknown,0,2013-02-21 06:54:00
2:54 AM,23.0,9.0,55,30.01,-9999.0,Variable,5.8,-,N/A,,Unknown,0,2013-02-21 07:54:00
3:54 AM,23.0,10.0,58,30.01,-9999.0,Variable,6.9,-,N/A,,Unknown,0,2013-02-21 08:54:00
4:54 AM,23.0,10.0,58,30.03,-9999.0,WNW,9.2,-,N/A,,Unknown,300,2013-02-21 09:54:00
5:54 AM,23.0,9.0,55,30.04,-9999.0,Variable,5.8,-,N/A,,Unknown,0,2013-02-21 10:54:00
6:54 AM,23.0,9.0,55,30.04,-9999.0,Variable,4.6,-,N/A,,Unknown,0,2013-02-21 11:54:00
7:54 AM,24.1,9.0,53,30.06,-9999.0,WNW,4.6,-,N/A,,Unknown,290,2013-02-21 12:54:00
8:54 AM,24.1,9.0,53,30.07,-9999.0,Variable,5.8,-,N/A,,Unknown,0,2013-02-21 13:54:00
9:54 AM,25.0,8.1,49,30.07,-9999.0,West,11.5,19.6,N/A,,Unknown,280,2013-02-21 14:54:00
10:54 AM,27.0,9.0,47,30.08,-9999.0,North,10.4,19.6,N/A,,Unknown,350,2013-02-21 15:54:00
11:54 AM,27.0,10.9,51,30.09,-9999.0,NW,10.4,23.0,N/A,,Unknown,320,2013-02-21 16:54:00
12:54 PM,28.0,12.0,51,30.07,-9999.0,NW,8.1,16.1,N/A,,Unknown,310,2013-02-21 17:54:00
1:54 PM,28.9,12.0,49,30.08,-9999.0,NNW,10.4,21.9,N/A,,Unknown,340,2013-02-21 18:54:00
2:54 PM,30.9,12.0,46,30.09,-9999.0,NNW,8.1,20.7,N/A,,Unknown,340,2013-02-21 19:54:00
3:54 PM,30.9,12.0,46,30.11,-9999.0,North,8.1,19.6,N/A,,Unknown,350,2013-02-21 20:54:00
4:54 PM,28.9,12.0,49,30.14,-9999.0,North,8.1,25.3,N/A,,Unknown,360,2013-02-21 21:54:00
5:54 PM,26.1,12.0,55,30.19,-9999.0,Variable,5.8,-,N/A,,Unknown,0,2013-02-21 22:54:00
6:54 PM,23.0,10.9,60,30.23,-9999.0,North,9.2,17.3,N/A,,Unknown,350,2013-02-21 23:54:00
7:54 PM,21.9,10.0,60,30.31,-9999.0,Variable,3.5,-,N/A,,Unknown,0,2013-02-22 00:54:00
8:54 PM,21.9,10.0,60,30.35,-9999.0,North,9.2,18.4,N/A,,Unknown,360,2013-02-22 01:54:00
9:54 PM,21.0,10.9,65,30.34,-9999.0,North,10.4,18.4,N/A,,Unknown,360,2013-02-22 02:54:00
10:54 PM,19.9,10.9,68,30.34,-9999.0,Variable,4.6,-,N/A,,Unknown,0,2013-02-22 03:54:00
11:54 PM,19.9,10.9,68,30.34,-9999.0,Calm,Calm,-,N/A,,Unknown,0,2013-02-22 04:54:00